Regional Weather Roundup
Issued by NWS State College, PA

Home | Current Version | Previous Version | Text Only | Print | Product List | Glossary On
Versions: 1 2 3 4 5 6 7 8 9 10 11 12 13 14 15 16 17 18 19 20 21 22 23 24 25 26 27 28 29 30 31 32 33 34 35 36 37 38 39 40 41 42 43 44 45 46 47 48 49 50
000
ASUS41 KCTP 221710
RWRCTP

REGIONAL WEATHER ROUNDUP
NATIONAL WEATHER SERVICE STATE COLLEGE PA
1200 PM EST WED FEB 22 2017

Note: "fair" indicates few or no clouds below 12,000 feet with no
significant weather and/or obstructions to visibility.

* = STATION THAT DOES NOT REPORT PRECIPITATION /E.G. RAIN...SNOW...ETC/
    THUNDER OR FOG.

PAZ002>004-007>009-013>016-020>023-029>032-221800-
WESTERN PENNSYLVANIA

CITY           SKY/WX    TMP DP  RH WIND       PRES   REMARKS
ERIE           CLOUDY    58  51  78 SW12      29.88S
MEADVILLE      RAIN      53  51  93 SW6       29.90S VSB 1
FRANKLIN*      CLOUDY    54  50  87 SW7       29.92F
NEW CASTLE     LGT RAIN  54  52  93 CALM      29.92F
BEAVER COUNTY  LGT RAIN  57  48  72 S3        29.93S
BUTLER*        CLOUDY    61  45  55 SW7       29.94S
PITTSBURGH INT CLOUDY    60  46  59 SW6       29.92F
PITTSBURGH     CLOUDY    61  43  51 SW7       29.92F
INDIANA*       CLOUDY    59  45  58 W9        29.95F
LATROBE        PTSUNNY   63  45  51 SW12      29.94F
WASHINGTON CO* CLOUDY    61  46  59 S5        29.95F
$$

PAZ004>006-010>012-017>019-024>028-033>037-041-042-045-046-049>053-221800-
CENTRAL PENNSYLVANIA

CITY           SKY/WX    TMP DP  RH WIND       PRES   REMARKS
BRADFORD       CLOUDY    56  48  74 SW10      29.90F
DUBOIS         CLOUDY    58  41  53 SW9       29.91F
CLEARFIELD       N/A    N/A N/A N/A MISG      29.92F
JOHNSTOWN      CLOUDY    57  43  59 SW10      29.93F
ALTOONA        PTSUNNY   58  42  55 SW6       29.93F
STATE COLLEGE  CLOUDY    54  37  54 S3        29.93F
WILLIAMSPORT   CLOUDY    50  35  56 SE5       29.95F
SELINSGROVE    CLOUDY    51  38  60 VRB6      29.96F
FT INDIANTOWN  MOSUNNY   50  40  69 VRB3      29.98F
CAPITAL CITY   CLOUDY    54  38  54 CALM      29.97F
HARRISBURG     PTSUNNY   51  40  65 SE5       29.97F
YORK           PTSUNNY   56  42  59 CALM      29.97F
$$

PAZ038>040-043-044-047-048-054-055-060>062-067>071-221800-
EASTERN PENNSYLVANIA

CITY           SKY/WX    TMP DP  RH WIND       PRES   REMARKS
SCRANTON       CLOUDY    48  40  73 NW5       29.95F
MOUNT POCONO   CLOUDY    45  39  79 CALM      29.93F
ALLENTOWN      MOSUNNY   50  37  61 CALM      29.98F
QUAKERTOWN*    MOSUNNY   50  37  62 CALM      29.99F
READING        PTSUNNY   53  41  63 NW3       29.97F
LANCASTER      SUNNY    N/A N/A N/A VRB3      29.97F
COATESVILLE    MOSUNNY   52  41  66 CALM      29.98F
POTTSTOWN      CLOUDY    52  38  58 CALM      29.99F
BLUE BELL      MOSUNNY   52  39  62 CALM      29.97F
DOYLESTOWN     PTSUNNY   52  39  61 SW5       29.97F
WILLOW GROVE   NOT AVBL
NORTH PHILA    MOSUNNY   50  42  74 CALM      30.00F
PHILADELPHIA   PTSUNNY   53  42  66 SW5       29.99F
$$



USA.gov is the U.S. government's official web portal to all federal, state and local government web resources and services.